Meath Environmental Platform

Observations for Trim Patrick St

Time AQI Temp °C Hum % Pres Pa CO μg/m³ H₂S μg/m³ NO μg/m³ NO₂ μg/m³ O₃ μg/m³ SO₂ μg/m³ PM1 μg/m³ PM2.5 μg/m³ PM10 μg/m³
Thursday 27 August 2026
11:38 3 19.7 78 38,460 0 0 1.44 11.6 56.34 0 20 28.62 29.95
11:37 3 19.7 78 38,460 0.03 0 1.25 10.06 55.06 0 20 27.2 28.51
11:36 3 19.7 78 38,460 0 0.22 1.56 23.35 36.59 1.34 22.57 31.41 32.72
11:35 3 19.6 78 38,460 0 0 1.42 8.09 56.6 0 20.86 26.51 29.16
11:34 3 19.6 78 38,460 0 0 1.16 8.92 52.68 0 20.86 29.3 30.6
11:33 3 19.6 78 38,460 0.01 0 1.14 10.8 61.64 0 22.57 31.45 34.23
11:31 3 19.6 78 38,460 0.01 0 1.49 12.26 47.73 0 20.86 29.26 31.92
11:29 3 19.6 78 38,460 0.02 0.8 1.32 14.76 55.08 0 21.72 31.41 33.43
11:28 3 19.6 79 38,460 0.02 0.07 1.64 14.23 55.12 0 21.72 29.21 29.72
11:24 3 19.6 78 38,460 0 0 0.9 6.73 49.38 0.71 21.72 29.93 30.45
11:23 3 19.6 78 38,460 0 0.23 0.92 9.84 59.23 0 21.72 30.7 33.43
11:22 3 19.7 78 38,460 0 0.3 0.94 10.32 56.41 0 19.14 28.58 31.44
11:21 3 19.7 78 38,460 0 0 1.02 9.49 50.47 0 20 30.03 32.08
11:20 3 19.7 78 38,460 0 0 1.16 9.18 56.97 0 20 29.28 29.87
11:19 3 19.7 78 38,460 0 0 1.09 9.21 56.02 0 22.57 30.06 32.14
11:18 3 19.8 78 38,460 0.01 0 1.13 10.61 55.69 0 21.72 31.48 33.59
11:17 3 19.8 78 38,460 0.03 0.14 0.92 15.75 55.27 0 23.43 32.88 38.52
11:16 3 19.8 78 38,460 0.05 0 0.89 9.18 46.8 0 20.86 30 31.31
11:15 3 19.8 78 38,460 0.03 0.3 0.74 12.2 54.81 0 20.86 30.73 34.91
11:14 3 19.8 78 38,460 0.04 0 0.71 13.03 49.06 0 21.72 32.85 34.91